FREGAT DEB, 45651

Orbit data source: Space-Track

FREGAT DEB, 45651 is space debris in LEO originally from a launch on Mon, 18 Jul 2011 UTC launched from the Tyuratam Missile And Space Complex (TTMTR). Debris objects in space refer to the collection of defunct objects orbiting the Earth. Examples of debris include non-operational satellites, rocket bodies, and fragments generated from explosions, collisions, or faulty payload assembly.

Loading next visibility...
Identifier
45651, 2011-037AT
Orbit
LEO
Country
Flag of CISCIS
Related business
Manufacturer
Lavochkin
Mission
Spacecraft
Bus & Motor
Unknown
Mass
Unknown
Launch date (UTC)
2011-07-18 (14 years ago)
Launch vehicle
Unknown
Launch site
Tyuratam Missile And Space Complex (TTMTR)
Object type
Payload
Rocket body
Debris
Shape & HBR
Unknown shape, 0.2 m
Radar Cross Section
Small (<0.1 m²)

Expand to show TLE details & history
Last TLE update: 12 hours ago

TLE from 12 hours ago
0 FREGAT DEB
1 45651U 11037AT  25299.98130051  .00035520  00000-0  36258-2 0  9998
2 45651  51.5603 185.8624 1078087 186.4149 172.1915 13.12044700243187
Epoch: 2025-10-26T23:33Z
TLE epoch observation values (Epoch: 2025-10-26T23:33:04.364Z)
Latitude
0.00005°
Longitude
157.00456°
Altitude
2,028.331 km
Speed
6.51 km/s
True Right ascension
12h 23m 26s
True Declination
0° 00' 00"
Sunlit
Object was in daylight at epoch
Visualization orbit readout
Latitude
Unknown
Longitude
Unknown
Altitude
Unknown
Speed
Unknown
Apparent Right ascension
Unknown
Apparent Declination
Unknown
Sunlit
N/A
Visualization observer readout
Local Sidereal Time
06:37:59
Azimuth
Unknown
Elevation
Unknown
Doppler factor
Unknown
Orbital elements
Apogee altitude
2,034.421 km
Perigee altitude
397.05 km
Semi-major axis
7,593.872 km
Eccentricity
0.10781
Inclination
51.5603°
RAAN
185.8624°
Arg. of periapsis
186.4149°
True anomaly
173.67133°
Mean anomaly
172.1915°
Eccentric anomaly
172.94967°
Mean motion
3.27981 °/min
Orbital period
109.76 mins
BSTAR
0.0036258
Loading maneuver chart data...
Computing Atmospheric mass density...
Loading historical data...
Loading historical data...
Loading historical data...
Loading historical data...
Loading historical data...
Loading historical data...
Loading historical data...

Documentation

Showing up to 5 results
|